KUIPER-00121

导读

KUIPER-00132是美国亚马逊“柯伊伯计划”卫星互联网星座中的一颗卫星,于2025年9月25日发射升空。该项目旨在近地轨道部署超3200颗卫星,提供全球卫星互联网服务,与SpaceX星链项目形成竞争。项目总投资达100亿美元,规划在2029年前完成全面组网,KUIPER-00132的成功发射是项目组网进程中的重要一步,助力亚马逊推进低轨互联网星座建设。

Basic Information
目录编号:
65763
目录名称:
KUIPER-00132
国际标识:
2025-217B
轨道中心:
EARTH
卫星名称:
KUIPER-00132
卫星全名:
KUIPER-00121
卫星状态:
在轨 (已飞行306 天)
发射日期:
2025-09-25 UTC
国别 :
美国 (US)
星等 :
--
Orbit Information
数据来源 国际轨道数据
星历时间: 2026-07-27T21:21:57+0800
11小时前
查看轨道信息
半长轴: 6813.362km
偏心率: 0.0007611
轨道倾角: 51.853°
近地点辐角 112.084°
升交点赤经 42.337°
平近点角 248.096°
近地点: 430.039km
远地点: 440.411km
周期: 93.283分钟
每日圈数: 15.436919
Detailed Information
使用方式:
暂无
2D Orbit Map
3D Orbit Map
Orbit Altitude Analysis Chart
Orbit Inclination Analysis Chart
Orbit Comprehensive Analysis Chart
View Comprehensive Chart